This is the latest recevied weather packets stored in our database for station/object SR4DIG-13. If no packets are shown the sender has not sent any weather packets the latest 1 day(s).
| Time | Temp. | Humidity | Pressure | Rain* | Wind** | Luminosity | Snow |
|---|---|---|---|---|---|---|---|
| 1777966781 | 20.56° C | 54% | 1010.2 hPa | 0 mm | 0 m/s | - | - |
| 1777966480 | 20° C | 55% | 1010.3 hPa | 0 mm | 0 m/s | - | - |
| 1777966179 | 20° C | 55% | 1010.4 hPa | 0 mm | 0 m/s | - | - |
| 1777965878 | 20° C | 55% | 1010.3 hPa | 0 mm | 0 m/s | - | - |
| 1777965578 | 19.44° C | 57% | 1010.4 hPa | 0 mm | 0 m/s | - | - |
| 1777964933 | 18.89° C | 58% | 1010.6 hPa | 0 mm | 0 m/s | - | - |
| 1777964633 | 19.44° C | 56% | 1010.7 hPa | 0 mm | 0 m/s | - | - |
| 1777964332 | 20° C | 56% | 1010.8 hPa | 0 mm | 0 m/s | - | - |
| 1777963709 | 20° C | 57% | 1010.9 hPa | 0 mm | 0 m/s | - | - |
| 1777963408 | 19.44° C | 57% | 1010.8 hPa | 0 mm | 0 m/s | - | - |
| 1777963107 | 19.44° C | 57% | 1010.9 hPa | 0 mm | 0 m/s | - | - |
| 1777962506 | 19.44° C | 59% | 1011.2 hPa | 0 mm | 0 m/s | - | - |
| 1777962205 | 18.89° C | 60% | 1010.9 hPa | 0 mm | 0 m/s | - | - |
| 1777961904 | 18.33° C | 61% | 1010.9 hPa | 0 mm | 0 m/s | - | - |
| 1777961483 | 17.78° C | 62% | 1011 hPa | 0 mm | 0 m/s | - | - |
| 1777961182 | 17.78° C | 63% | 1010.8 hPa | 0 mm | 0 m/s | - | - |
| 1777960881 | 17.22° C | 64% | 1010.8 hPa | 0 mm | 0 m/s | - | - |
| 1777960580 | 16.67° C | 65% | 1010.8 hPa | 0 mm | 0 m/s | - | - |
| 1777959995 | 16.67° C | 66% | 1010.9 hPa | 0 mm | 0 m/s | - | - |
| 1777959694 | 16.67° C | 66% | 1010.8 hPa | 0 mm | 0 m/s | - | - |
| 1777959393 | 16.11° C | 68% | 1010.9 hPa | 0 mm | 0 m/s | - | - |
| 1777959093 | 15.56° C | 70% | 1010.8 hPa | 0 mm | 0 m/s | - | - |
| 1777958792 | 15.56° C | 71% | 1010.8 hPa | 0 mm | 0 m/s | - | - |
| 1777958491 | 15° C | 73% | 1010.9 hPa | 0 mm | 0 m/s | - | - |
| 1777958190 | 13.89° C | 74% | 1010.8 hPa | 0 mm | 0 m/s | - | - |
* Rain since midnight (hover to see other rain measurements)
** Current wind speed in m/s (hover to see current wind gust speed)